www.pogodaiklimat.ru

Погода и климат >> Архив погоды >> Россия >> Тува >> Тоора-Хем


ПОГОДА в Тоора-Хем

  • Прогноз погоды в Тоора-Хем
  • Монитор погоды в Тоора-Хем
  • Климат города

АРХИВ ПОГОДЫ в Тоора-Хем

Время (UTC), дата Ветер
(напр.,м/с)
 
Видим.   Явления Облачность Т
(С)
Тd
(С)
f
(%)
Тe
(С)
Тes
(С)
Комфортность P
(гПа)
Po
(гПа)
Тmin
(С)
Tmax
(С)
R
(мм)
R24
(мм)
S
(см)
03 16.09 ЮВ 2 50 км 8/4 1000 м
[Cb cap Ac trans]
+8.7 +3.6 70 +7 +9 1018.8 912.8
06 16.09 З 1 50 км 8/5 1000 м
[Cb cap Ac trans]
+16.0 +1.8 38 +17 +20 1014.5 911.3
09 16.09 ЮВ 1 50 км 6/6 1000 м
[Cb cap]
+17.2 +0.9 33 +18 +20 1013.1 910.3
12 16.09 С 3
{11}
50 км 8/8 1000 м
[Cb cap]
+10.6 +4.9 68 +9 +9 1016.7 911.6 +18.0
15 16.09 Ю 1 50 км 6/4 1000 м
[Cb cap Ac trans]
+4.1 +2.4 89 +3 +3 1020.6 912.6
18 16.09 штиль 0 20 км слабый ливневой дождь 10/10 1000 м
[Cb cap]
+4.4 +3.2 92 +3 +3 1021.4 913.3
21 16.09 ЮВ 1 50 км {ливн. осадки} 6/6 1000 м
[Cb cap]
+2.2 +1.1 92 0 0 1020.5 911.8
00 17.09 штиль 0 500 м туман {ливн. осадки} ?/? +1.3 +1.0 98 -0 -0 1019.7 910.7 +0.2 0.5
03 17.09 ЮВ 1 500 м туман ?/? +4.5 +4.3 99 +3 +3 1017.8 910.0
06 17.09 С 1 10 км слабый ливневой дождь {туман} 10/10 1000 м
[Cb cap]
+6.6 +5.7 94 +5 +5 1016.7 910.1
09 17.09 С 1 50 км {ливн. осадки} 9/9 1000 м
[Cb cap]
+8.2 +4.8 79 +8 +8 1017.3 911.0
12 17.09 штиль 0 50 км {ливн. осадки} 9/8 1000 м
[Cb cap Ac trans]
+7.5 +3.5 76 +7 +7 1017.9 911.6 +9.2 1
15 17.09 штиль 0 50 км 10/10 1000 м
[Cb cap]
+3.4 +2.9 97 +2 +2 1021.0 912.6
18 17.09 С 1 50 км 10/10 1000 м
[Cb cap]
+2.8 +2.3 97 +1 +1 1020.2 911.9
21 17.09 штиль 0 10 км слабый ливневой дождь 10/10 1000 м
[Cb cap]
+2.5 +2.0 96 +1 +1 1020.5 911.8
00 18.09 штиль 0 20 км слабый ливневой дождь 10/10 1000 м
[Cb cap]
+3.7 +3.2 97 +2 +2 1019.5 911.6 +1.8 2
03 18.09 С 2 50 км в посл. час ливневой дождь 10/10 1000 м
[Cb cap]
+5.3 +3.6 89 +3 +3 1020.1 912.5
06 18.09 С 3 50 км {ливн. осадки} 10/10 1000 м
[Cb cap]
+7.1 +2.0 70 +4 +4 1019.3 912.5
09 18.09 СЗ 4-10
{11}
50 км 9/8 1000 м
[Cb cap Ac trans]
+8.0 +0.5 59 +5 +5 1019.8 913.3
12 18.09 СЗ 4
{11}
50 км 9/8 1000 м
[Cb cap Ac trans]
+5.2 -3.0 55 +2 +2 1023.1 915.1 +8.9 1
15 18.09 З 3 50 км 9/8 1000 м
[Cb cap Ac trans]
+3.8 -2.1 65 0 0 1026.2 917.2
18 18.09 З 3 50 км 10/10 1000 м
[Cb cap]
+3.5 -1.5 70 -0 -0 1027.1 918.0
21 18.09 З 3 50 км 9/9 1000 м
[Cb cap]
+3.0 -1.8 71 -1 -1 1027.4 919.3
00 19.09 СВ 2 50 км 9/9 1000 м
[Cb cap]
+1.9 -1.8 76 -1 -1 1029.1 919.4 +1.9
03 19.09 С 3 50 км 8/8 1000 м
[Cb cap]
+4.4 -2.3 62 +1 +2 1029.8 920.8 +1.8
06 19.09 СЗ 3 50 км 6/6 1000 м
[Cb cap]
+7.0 -2.9 49 +5 +7 1028.0 920.2
09 19.09 СЗ 4
{10}
50 км {ливн. осадки} 8/8 1000 м
[Cb cap]
+7.4 -2.3 50 +5 +5 1027.8 920.0
12 19.09 СЗ 3 50 км {ливн. осадки} 8/6 1000 м
[Cb cap Ac trans]
+4.4 -2.3 62 +1 +1 1030.3 921.2 +9.4 0.6
15 19.09 СЗ 1 50 км 9/9 1000 м
[Cb cap]
+3.4 -1.9 68 +2 +2 1031.8 922.2
18 19.09 СВ 1 50 км 8/5 1000 м
[Cb cap Ac trans]
+2.0 -2.7 71 +1 +1 1032.0 922.0
21 19.09 штиль 0 50 км 4/3 1000 м
[Sc Ci fib]
-4.0 -4.8 94 -5 -5 1034.8 921.9
00 20.09 штиль 0 50 км 3/3 1000 м
[Sc]
-5.9 -6.7 94 -7 -7 1036.5 922.6 -6.0
03 20.09 Ю 1 50 км 3/3 1000 м
[Cu med, cong]
+4.5 -1.5 65 +4 +7 1032.1 922.9
06 20.09 В 2 50 км 3/3 1000 м
[Cu med, cong]
+10.3 -1.1 45 +9 +15 1027.9 921.2
09 20.09 Ю 2 50 км 1/1 1000 м
[Cu hum]
+11.3 -2.4 38 +11 +13 1025.8 919.7
12 20.09 штиль 0 50 км 3/0
[Ci fib]
+6.7 -2.6 51 +6 +6 1027.6 919.6 +12.4
15 20.09 С 1 50 км 3/0
[Ci fib]
-2.7 -5.0 84 -5 -5 1032.5 920.6
18 20.09 штиль 0 50 км ясно -5.1 -6.5 90 -6 -6 1033.5 920.3
21 20.09 штиль 0 50 км ясно -6.4 -7.6 91 -7 -7 1034.0 920.3
00 21.09 штиль 0 50 км ясно -7.8 -8.8 93 -9 -8 1034.1 919.7 -7.9
03 21.09 штиль 0 50 км ясно +3.8 -2.8 62 +3 +10 1029.2 919.9
06 21.09 штиль 0 50 км ясно +10.2 -2.4 41 +10 +21 опасность
простуды
1025.2 918.9
09 21.09 штиль 0 50 км ясно +14.6 -4.5 26 +15 +19 1021.4 916.8
12 21.09 штиль 0 50 км ясно +5.1 +1.0 75 +4 +4 1025.2 917.0 +15.4
15 21.09 С 1 50 км ясно -2.1 -4.6 83 -4 -4 1029.9 918.2
18 21.09 С 1 50 км ясно -4.6 -5.9 91 -7 -7 1031.3 918.8
21 21.09 штиль 0 50 км ясно -6.5 -7.7 91 -7 -7 1032.9 919.3
00 22.09 СВ 1 50 км 3/0
[Ci fib]
-7.8 -8.8 93 -10 -10 1034.6 920.0 -8.0
03 22.09 Ю 1 50 км 3/0
[Ci fib]
+4.2 -3.3 58 +3 +8 1028.7 919.8
06 22.09 ЮЗ 1 50 км 3/0
[Ci fib]
+12.7 -0.5 40 +13 +21 1022.8 917.4
09 22.09 ЮЗ 1 50 км 3/0
[Ci fib]
+17.8 +0.9 32 +19 +22 1018.1 915.1
12 22.09 штиль 0 50 км 6/3 1000 м
[Sc Ac trans Ci fib]
+8.3 -1.0 52 +8 +8 1021.5 914.8 +18.1
15 22.09 штиль 0 50 км 8/3 1000 м
[Sc Ac trans Ci fib]
+1.0 -3.2 74 0 0 1024.9 915.3
18 22.09 штиль 0 50 км 9/4 1000 м
[Sc Ac As]
+0.8 -1.8 83 -0 -0 1025.1 915.1
21 22.09 штиль 0 50 км 9/4 1000 м
[Sc Ac As]
+0.7 -1.3 86 -0 -0 1024.7 914.8

 

Местоположение метеостанции Тоора-Хем (Тува, Россия): широта 52.47 долгота 96.10 высота над уровнем моря 920 м.

В архиве по умолчанию представлена погода в Тоора-Хем за последнюю неделю. Архивные данные за месяц целиком и за предыдущие месяцы, начиная с января 2011 года, Вы можете получить, выбрав интересующий диапазон дат из раскрывающегося списка и нажав кнопку "Ввод!".


*Определитесь, кто Вы:
робот инопланетянин человек

Внимание! Время в таблицах - всемирное. Для получения местного времени необходимо прибавить поправку, которая в Тоора-Хем равна 7 ч.

Смотрите также архив погоды в соседних городах и на ближайших метеорологических станциях:

Погода в Сарыг-Сепе (Тува, Россия) (114 км)
Погода в Кызыле (Тува, Россия) (138 км)
Погода в Туране (Тува, Россия) (153 км)
Погода в Сосновке (Тува, Россия) (183 км)
Погода в Казыре (Красноярский край, Россия) (186 км)
Погода в Алыгджере (Иркутская область, Россия) (192 км)
Погода в Оленьей Речке (Красноярский край, Россия) (197 км)
Погода в Верхней Гутаре (Иркутская область, Россия) (203 км)
Погода в Нижнеусинском (Красноярский край, Россия) (210 км)
Погода в Хову-Аксы (Тува, Россия) (217 км)

Пояснения к столбцам:

Ветер - указаны скорость ветра в м/с - средняя за 10 мин, порывы в срок и между сроками (в фигурных скобках) и направление, откуда дует ветер: С - северный, СВ - северо-восточный, В - восточный, ЮВ - юго-восточный, Ю - южный, ЮЗ - юго-западный, З - западный, СЗ - северо-западный.
Видимость - горизонтальная дальность видимости в метрах или километрах. При видимости от 1 до 10 км при отсутствии осадков обычно наблюдается дымка, при ухудшении видимости до 1 км и менее - туман. В сухую погоду видимость может ухудшаться дымом, пылью или мглою.
Явления - указаны атмосферные явления, наблюдавшиеся в срок или в последний час перед сроком; фигурными скобками обозначены явления, наблюдавшиеся между сроками (за 1-3 часа до срока); квадратными скобками обозначены град или гололедные отложения с указанием их диаметра в мм.
Облачность - указаны через наклонную черту общая и нижняя облачность в баллах и высота нижней границы облаков в метрах; квадратными скобками обозначены формы облаков: Ci - перистые, Cs - перисто-слоистые, Cc - перисто-кучевые, Ac - высококучевые, As - высокослоистые, Sc - слоисто-кучевые, Ns - слоисто-дождевые, Cu - кучевые, Cb - кучево-дождевые. Подробнее классификацию облаков см. в Атласе облаков (PDF).
T - Температура воздуха - температура, измеренная на высоте 2 м над землей.
Td - Температура точки росы - температура, при понижении до которой содержащийся в воздухе водяной пар достигнет насыщения.
f - Относительная влажность воздуха - влажноcть воздуха, измеренная на высоте 2 м над землей.
Te - Эффективная температура - температура, которую ощущает одетый по сезону человек в тени. Характеристика душности погоды. При расчете учитывается влияние влажности воздуха и скорости ветра на теплоощущения человека.
Tes - Эффективная температура на солнце - температура, которую ощущает человек, с поправкой на солнечный нагрев. Характеристика знойности погоды. Зависит от высоты солнца над горизонтом, облачности и скорости ветра. Ночью, в пасмурную погоду, а также при ветре 12 м/с и более поправка равна нулю.
P - Атмосферное давление - приведенное к уровню моря атмосферное давление.
Po - Атмосферное давление - измеренное на уровне метеостанции атмосферное давление.
Tmin - Минимальная температура - минимум температуры воздуха на высоте 2 м над землей.
Tmax - Максимальная температура - максимум температуры воздуха на высоте 2 м над землей.
R - Количество осадков - Количество выпавших осадков за период времени, мм. При наведении курсора мыши на число - период времени, за который выпало указанное количество осадков.
R24 - Количество осадков - Количество выпавших осадков за 24 часа, мм.
S - Снежный покров - Высота снежного покрова, см. При наведении курсора мыши на число - состояние снежного покрова и степень покрытия местности в баллах.